Regional Weather Roundup
Issued by NWS Charleston, WV

Home | Current Version | Previous Version | Text Only | Print | Product List | Glossary On
Versions: 1 2 3 4 5 6 7 8 9 10 11 12 13 14 15 16 17 18 19 20 21 22 23 24 25 26 27 28
000
ASUS41 KRLX 220510
RWRRLX
West Virginia Regional Weather Roundup
National Weather Service Charleston WV
100 AM EDT SAT JUL 22 2017

Note: "fair" indicates few or no clouds below 12,000 feet with no
significant weather and/or obstructions to visibility.

WVZ003-220600-
Northern Panhandle of West Virginia

CITY           SKY/WX    TMP DP  RH WIND       PRES   REMARKS
WHEELING       CLOUDY    73  71  93 S6        30.00F
$$

WVZ009-220600-
Northwest West Virginia

CITY           SKY/WX    TMP DP  RH WIND       PRES   REMARKS
PARKERSBURG    CLOUDY    73  72  96 CALM      30.02S FOG
$$

WVZ006-220600-
Western West Virginia

CITY           SKY/WX    TMP DP  RH WIND       PRES   REMARKS
HUNTINGTON     LGT RAIN  76  73  91 E3        30.00R
$$

WVZ015-220600-
West Central West Virginia

CITY           SKY/WX    TMP DP  RH WIND       PRES   REMARKS
CHARLESTON     MOCLDY    73  71  93 CALM      30.01R
$$

WVZ022-031-220600-
North Central West Virginia

CITY           SKY/WX    TMP DP  RH WIND       PRES   REMARKS
CLARKSBURG     FOG       69  68  96 CALM      30.03R VSB 1/4
MORGANTOWN     CLEAR     70  67  90 CALM      30.03S
$$

WVZ025-035-042-045-220600-
Southern West Virginia

CITY           SKY/WX    TMP DP  RH WIND       PRES   REMARKS
BECKLEY        CLEAR     70  63  78 CALM      30.11R
LOGAN            N/A     75  72  88 CALM      30.05R
BLUEFIELD      MOCLDY    72  65  78 SW5       30.13S
LEWISBURG      PTCLDY    67  65  91 CALM      30.10R
$$

WVZ047-220600-
Northern Mountains of West Virginia

CITY           SKY/WX    TMP DP  RH WIND       PRES   REMARKS
ELKINS         CLOUDY    68  65  90 CALM      30.08R FOG
$$

WVZ052-220600-
Eastern Panhandle of West Virginia

CITY           SKY/WX    TMP DP  RH WIND       PRES   REMARKS
MARTINSBURG    CLEAR     73  71  93 CALM      29.93F
PETERSBURG     CLEAR     70  69  97 CALM      30.01R
$$




USA.gov is the U.S. government's official web portal to all federal, state and local government web resources and services.